Regional Weather Roundup
Issued by NWS

Home | Current Version | Previous Version | Graphics & Text | Print | Product List | Glossary On
Versions: 1 2 3 4 5 6 7 8 9 10 11 12 13 14 15 16 17 18 19 20 21 22 23 24 25 26 27 28 29 30 31 32 33 34 35 36 37 38 39 40 41 42 43 44 45 46 47 48 49 50
000
ASUS43 KLSX 272107
RWRMO

WEATHER SUMMARY FOR MISSOURI
NATIONAL WEATHER SERVICE SPRINGFIELD MO
300 PM CST SAT DEC 27 2014

NOTE: "FAIR" INDICATES FEW OR NO CLOUDS BELOW 12,000 FEET WITH NO
       SIGNIFICANT WEATHER AND/OR OBSTRUCTIONS TO VISIBILITY.
       CURRENT SKY AND/OR WEATHER CONDITIONS ARE NOT AVAILABLE FOR
       CHILLICOTHE AND FARMINGTON.

MOZ001>031-035>038-043-044-053-054-272200-
...NORTHERN AND WESTERN MISSOURI...

CITY           SKY/WX    TMP DP  RH WIND       PRES   REMARKS
KANSAS CTY INT CLOUDY    31  21  66 NW9       30.22R WCI  23
KANSAS C DTWN  CLOUDY    32  21  64 NW10      30.24R WCI  24
LEE`S SUMMIT   CLOUDY    32  23  69 NW14      30.22R WCI  22
ST JOSEPH      PTSUNNY   30  20  66 NW16      30.24S WCI  19
CHILLICOTHE      N/A     32  23  69 NW9       30.22R WCI  24
KIRKSVILLE     CLOUDY    32  25  75 W12       30.18R WCI  23

$$
MOZ066>068-077>081-088>096-101>105-272200-
...SOUTHWEST MISSOURI...

CITY           SKY/WX    TMP DP  RH WIND       PRES   REMARKS
SPRINGFIELD    LGT RAIN  33  30  88 NW12      30.16F WCI  24
JOPLIN         CLOUDY    31  28  89 NW9       30.23R WCI  23

$$
MOZ032>034-039>042-045>050-055>058-069>072-272200-
...CENTRAL MISSOURI...

CITY           SKY/WX    TMP DP  RH WIND       PRES   REMARKS
COLUMBIA       LGT SNOW  34  31  88 NW10      30.17R FOG     WCI  26
JEFFERSON CITY LGT SNOW  35  32  88 NW8       30.19S FOG     WCI  29
ROLLA          CLOUDY    34  32  92 NW10      30.13F WCI  26
SEDALIA        CLOUDY    35  28  75 NW10      30.19F WCI  27
WHITEMAN AFB   CLOUDY    34  26  71 NW7       30.19F WCI  28
WARRENSBURG    CLOUDY    34  27  75 NW8       30.21S WCI  27
OSAGE BEACH    CLOUDY    36  30  80 NW3       30.17S

$$
MOZ051-052-059>065-272200-
...EAST CENTRAL MISSOURI...

CITY           SKY/WX    TMP DP  RH WIND       PRES   REMARKS
ST LOUIS INTL  LGT RAIN  39  36  87 NW12      30.16R
SPIRIT OF STL  LGT RAIN  38  35  89 NW9       30.15R
ST CHARLES     LGT RAIN  39  35  86 W9        30.17R FOG

$$
MOZ072>076-082>087-097>100-106>115-272200-
...SOUTH CENTRAL AND SOUTHEAST MISSOURI...

CITY           SKY/WX    TMP DP  RH WIND       PRES   REMARKS
CAPE GIRARDEAU CLOUDY    50  49  96 N7        30.10S
FARMINGTON     CLOUDY    39  37  93 SE8       30.13R
POPLAR BLUFF   CLOUDY    51  46  83 NW12      30.11R
WEST PLAINS    LGT RAIN  39  35  86 NW6       30.13R

$$


USA.gov is the U.S. government's official web portal to all federal, state and local government web resources and services.